Regional Weather Roundup
Issued by NWS Newport/Morehead, NC

Current Version | Previous Version | Graphics & Text | Print | Product List | Glossary Off
Versions: 1 2 3 4 5 6 7 8 9 10 11 12 13 14 15 16 17 18 19 20 21 22 23 24 25 26 27 28 29 30 31 32 33 34 35 36 37 38 39 40 41 42 43 44 45 46 47 48 49 50

000
ASUS42 KMHX 200110
RWRMHX
WEATHER ROUNDUP FOR EASTERN NORTH CAROLINA
NATIONAL WEATHER SERVICE NEWPORT/MOREHEAD CITY NC
800 PM EST FRI DEC 19 2014

NOTE: "FAIR" INDICATES FEW OR NO CLOUDS BELOW 12,000 FEET
WITH NO SIGNIFICANT WEATHER AND/OR OBSTRUCTIONS TO VISIBILITY

NCZ015>017-031-032-045>047-102-103-200200-
NORTH COAST

CITY           SKY/WX    TMP DP  RH WIND       PRES   REMARKS
EDENTON          N/A     35  29  82 CALM      30.20S
ELIZABETH CITY MOCLDY    41  31  67 NE7       30.21R
KITTY HAWK     PTCLDY    40  32  72 NW3       30.20R
MANTEO         MOCLDY    40  32  74 N5        30.21S

$$

NCZ045>047-081-094-103-104-200200-
CENTRAL COAST

CITY           SKY/WX    TMP DP  RH WIND       PRES   REMARKS
FRISCO         MOCLDY    41  34  76 NE3       30.20R
SWANQUARTER      N/A     39 N/A N/A CALM      30.15S

$$

NCZ095-097-098-100-101-200200-
SOUTHERN COAST

CITY           SKY/WX    TMP DP  RH WIND       PRES   REMARKS
BEAUFORT       MOCLDY    43  35  73 NE5       30.19S
CEDAR ISLAND     N/A     46 N/A N/A NE6       30.24R
JACKSONVILLE   CLOUDY    46  32  58 N3        30.18R
PINEY ISLAND   MOCLDY    47  38  71 NE8       30.19R
WILMINGTON     MOCLDY    44  37  76 N3        30.18R


$$

NCZ011>013-027>030-043-044-078>080-089-090>093-098-200200-
COASTAL PLAIN

CITY           SKY/WX    TMP DP  RH WIND       PRES   REMARKS
AHOSKIE        PTCLDY    32  29  89 CALM      30.21S
CLINTON        MOCLDY    46  33  61 E3        30.18S
ELIZABETHTOWN  MOCLDY    45  32  60 CALM      30.17S
GOLDSBORO      MOCLDY    40  39  97 CALM      30.17S
GREENVILLE     MOCLDY    37  34  87 CALM      30.21R
HAVELOCK       MOCLDY    42  35  76 N3        30.20S
KENANSVILLE    MOCLDY    39  33  77 CALM      30.19R
KINSTON        CLOUDY    37  34  87 CALM      30.20R
NEW BERN       MOCLDY    41  32  70 E5        30.20S
RICHLANDS      CLOUDY    41  30  65 CALM      30.19S
ROCKY MOUNT    MOCLDY    35  31  85 CALM      30.20S
WASHINGTON     MOCLDY    37  32  82 E3        30.21R
WHITEVILLE     MOCLDY    43  35  72 CALM      30.16R

$$

AMZ130-135-150-152-154-156-158-170-250-252-270-ANZ085-086-088-633-658-670-200200-
MARINE OBSERVATIONS

STATION/POSITION TIME  TEMP    WIND        PRES    WAVE   SWELL
                       AIR SEA DIR/SP/G            HT/PER HT/PER
                 (UTC) (F)     (DEG/KT/KT) (MB)    (FT/S) (FT/S)
CHESAPEAKE LIGHT 0000   40     360/ 14/ 16 1023.3
64 E VA BEACH    0100   42 54  340/ 16/ 21 1021.9    4/ 5   2/11
DUCK             0100   42 47  350/ 12/ 13 1021.9
2 E DUCK         0100      47                N/A     3/ 6
10 NE DUCK       0100      51                N/A     4/ 6
OREGON INLET     0100   41 50  320/  4/  5 1022.5
13E OREGON INLT  0100      53                N/A     4/ 6
HATTERAS CG      0100   44 53   40/  5/  7 1022.7
DIAMOND BUOY     0100   46                 1022.4    3/ 7
17 S OCRACOKE    NOT AVBL
CAPE LOOKOUT     0000   47      20/  7/  8 1021.9
BEAUFORT LAB     0100   45 53   40/  3/  5 1021.0
30 SE NEW RIVER  0100   53 61   50/  8/ 12 1022.0    1/10   2/10
5 SE WRIGHTSVLE  NOT AVBL
225 S CAPE HAT   0023   66 72   10/  6/  8 1020.4    3/11   2/11
41 SE CHARLESTON 0100   63 68   70/  6/  8 1019.8    2/10   2/10

$$



USA.gov is the U.S. government's official web portal to all federal, state and local government web resources and services.